To NAV CANADA Home Page Login to a new session Search on AWWS site Feedback and Comments Disclaimer Vers la page française équivalente Tips FAQ What's new on the site To the Forecasts and Observations / NOTAM section To "File a Flight Plan" website Publications and other links Update of the User's profile FIC Telephone Numbers My Weather Data Folder Route Weather Data Regional Weather Data Local Weather Data To the Forecasts and Observations / NOTAM section
Request Generated 05/26/2016 at 06:44:01 UTC . Weather information available at that time is displayed.

METAR/TAF

NAUJAAT/NU    

LWIS CYUT 260600Z AUTO 35004KT M04/M06 A3016=
LWIS CYUT 260500Z AUTO 32004KT M03/M05 A3015=
LWIS CYUT 260400Z AUTO 27003KT 220V290 M03/M04 A3014=

*** REMARK        : Forecast period has ended; this was the last TAF issued
*** REMARQUE : La période de prévision est échue; ceci était le dernier TAF qui a été émis
TAF CYUT 251838Z 2519/2522 34010KT P6SM FEW015 BKN030 TEMPO 2519/2522
5SM -SN OVC015
RMK NXT FCST WILL BE ISSUED AT 261345Z=
Your time UTC time
Weather data provided by Environment Canada and NAV CANADA